MIDAS 5 DEB, 19981

Orbit data source: Space-Track

MIDAS 5 DEB, 19981 is space debris in LEO originally from a launch on Mon, 09 Apr 1962 UTC launched from the Air Force Western Test Range (AFWTR). Debris objects in space refer to the collection of defunct objects orbiting the Earth. Examples of debris include non-operational satellites, rocket bodies, and fragments generated from explosions, collisions, or faulty payload assembly.

Loading next visibility...
Identifier
19981, 1962-010H
Orbit
LEO
Country
Flag of USUS
Related business
Manufacturer
MIT-LL
Mission
Spacecraft
Bus & Motor
WESTFORD DRAG, Unknown motor
Mass
~1 kg wet, ~1 kg dry
Launch date (UTC)
1962-04-09 (64 years ago)
Launch vehicle
Unknown
Launch site
Air Force Western Test Range (AFWTR)
Object type
Payload
Rocket body
Debris
Shape & HBR
Unknown
Radar Cross Section
Medium (>0.1 m² and <1 m²)

Expand to show TLE details & history
Last TLE update: 18 hours ago

TLE from 18 hours ago
0 MIDAS 5 DEB
1 19981U 62010H   26194.25446578  .00000112  00000-0  21482-1 0  9992
2 19981  86.6735 311.1594 0334339 259.1201  97.1916  9.43003054307971
Epoch: 2026-07-13T06:06Z
TLE epoch observation values (Epoch: 2026-07-13T06:06:25.843Z)
Latitude
-0.00009°
Longitude
-71.5899°
Altitude
3,137.805 km
Speed
6.456 km/s
True Right ascension
20h 44m 38s
True Declination
0° 00' 00"
Sunlit
Object was in full shadow at epoch
Visualization orbit readout
Latitude
Unknown
Longitude
Unknown
Altitude
Unknown
Speed
Unknown
Apparent Right ascension
Unknown
Apparent Declination
Unknown
Sunlit
N/A
Visualization observer readout
Local Sidereal Time
12:51:14
Azimuth
Unknown
Elevation
Unknown
Doppler factor
Unknown
Orbital elements
Apogee altitude
3,399.567 km
Perigee altitude
2,766.905 km
Semi-major axis
9,461.373 km
Eccentricity
0.03343
Inclination
86.6735°
RAAN
311.1594°
Arg. of periapsis
259.1201°
True anomaly
100.97018°
Mean anomaly
97.1916°
Eccentric anomaly
99.0832°
Mean motion
2.35837 °/min
Orbital period
152.65 mins
BSTAR
0.021482
Loading maneuver chart data...
Computing Atmospheric mass density...
Loading historical data...
Loading historical data...
Loading historical data...
Loading historical data...
Loading historical data...
Loading historical data...
Loading historical data...

Documentation

Showing up to 5 results
|